• In Netherlands
  • List of Countries
  • For 7 days
  • Water Temperature
  • Satellite Maps
  • Weather Map
  • Weather Widgets
  • user-avatar
    Login

    Hourly Weather La Rioja

    Today, 11 December, Monday

    Time Temperature Precipitation Wind Pressure Humidity
    00:00 +31°C° 0.4 mm 3 mps 715 mmHg 33%
    01:00 +30°C° 0.4 mm 3 mps 716 mmHg 35%
    02:00 +30°C° 0 mm 3 mps 716 mmHg 37%
    03:00 +29°C° 0.4 mm 3 mps 716 mmHg 38%
    04:00 +28°C° 0.4 mm 3 mps 716 mmHg 40%
    05:00 +28°C° 0.4 mm 3 mps 716 mmHg 41%
    06:00 +28°C° 0.2 mm 3 mps 716 mmHg 40%
    07:00 +28°C° 0.2 mm 3 mps 716 mmHg 38%
    08:00 +29°C° 0.2 mm 2 mps 717 mmHg 37%
    09:00 +30°C° 0.1 mm 2 mps 716 mmHg 36%
    10:00 +31°C° 0.1 mm 2 mps 716 mmHg 34%
    11:00 +31°C° 0.1 mm 2 mps 716 mmHg 32%
    12:00 +32°C° 0 mm 2 mps 715 mmHg 31%
    13:00 +34°C° 0 mm 3 mps 714 mmHg 30%
    14:00 +35°C° 0 mm 3 mps 713 mmHg 29%
    15:00 +35°C° 0 mm 4 mps 713 mmHg 29%
    16:00 +35°C° 0 mm 4 mps 712 mmHg 28%
    17:00 +35°C° 0 mm 5 mps 711 mmHg 28%
    18:00 +34°C° 0.1 mm 5 mps 711 mmHg 30%
    19:00 +33°C° 0.1 mm 4 mps 712 mmHg 32%
    20:00 +32°C° 0.1 mm 4 mps 712 mmHg 34%
    21:00 +30°C° 0 mm 3 mps 712 mmHg 36%
    22:00 +30°C° 0 mm 3 mps 712 mmHg 38%
    23:00 +29°C° 0 mm 2 mps 713 mmHg 40%

    Tomorrow, 12 December, Tuesday

    Time Temperature Precipitation Wind Pressure Humidity
    00:00 +28°C° 0 mm 2 mps 712 mmHg 42%
    01:00 +28°C° 0 mm 2 mps 712 mmHg 44%
    02:00 +27°C° 0 mm 1 mps 712 mmHg 45%
    03:00 +27°C° 0 mm 1 mps 711 mmHg 46%
    04:00 +26°C° 0 mm 2 mps 711 mmHg 47%
    05:00 +26°C° 0 mm 2 mps 711 mmHg 48%
    06:00 +27°C° 0 mm 2 mps 711 mmHg 44%
    07:00 +28°C° 0 mm 2 mps 712 mmHg 41%
    08:00 +30°C° 0 mm 2 mps 712 mmHg 37%
    09:00 +31°C° 0 mm 2 mps 712 mmHg 34%
    10:00 +34°C° 0 mm 2 mps 712 mmHg 31%
    11:00 +35°C° 0 mm 2 mps 712 mmHg 29%
    12:00 +36°C° 0 mm 3 mps 711 mmHg 27%
    13:00 +38°C° 0 mm 3 mps 710 mmHg 25%
    14:00 +40°C° 0 mm 4 mps 710 mmHg 23%
    15:00 +40°C° 0.1 mm 4 mps 709 mmHg 22%
    16:00 +40°C° 0.1 mm 5 mps 709 mmHg 22%
    17:00 +41°C° 0.1 mm 5 mps 708 mmHg 21%
    18:00 +39°C° 0 mm 5 mps 708 mmHg 24%
    19:00 +37°C° 0 mm 4 mps 709 mmHg 27%
    20:00 +35°C° 0 mm 4 mps 709 mmHg 30%
    21:00 +34°C° 0 mm 3 mps 709 mmHg 32%
    22:00 +34°C° 0 mm 3 mps 710 mmHg 34%
    23:00 +32°C° 0 mm 2 mps 710 mmHg 36%

    Day after tomorrow, 13 December, Wednesday

    Time Temperature Precipitation Wind Pressure Humidity
    00:00 +31°C° 0 mm 2 mps 710 mmHg 37%
    01:00 +31°C° 0 mm 2 mps 709 mmHg 38%
    02:00 +30°C° 0 mm 2 mps 709 mmHg 39%
    03:00 +30°C° 0 mm 2 mps 709 mmHg 40%
    04:00 +29°C° 0 mm 2 mps 709 mmHg 41%
    05:00 +29°C° 0 mm 2 mps 709 mmHg 42%
    06:00 +30°C° 0 mm 3 mps 710 mmHg 38%
    07:00 +32°C° 0 mm 4 mps 711 mmHg 34%
    08:00 +34°C° 0 mm 5 mps 712 mmHg 30%
    09:00 +35°C° 0 mm 6 mps 712 mmHg 29%
    10:00 +36°C° 0 mm 7 mps 712 mmHg 27%
    11:00 +38°C° 0 mm 8 mps 712 mmHg 26%
    12:00 +39°C° 0 mm 7 mps 712 mmHg 25%
    13:00 +40°C° 0 mm 7 mps 712 mmHg 24%
    14:00 +40°C° 0 mm 7 mps 711 mmHg 24%
    15:00 +40°C° 0 mm 6 mps 711 mmHg 23%
    16:00 +40°C° 0 mm 6 mps 711 mmHg 22%
    17:00 +41°C° 0 mm 5 mps 711 mmHg 21%
    18:00 +39°C° 0 mm 5 mps 711 mmHg 22%
    19:00 +37°C° 0 mm 4 mps 712 mmHg 24%
    20:00 +36°C° 0 mm 4 mps 713 mmHg 25%
    21:00 +35°C° 0 mm 4 mps 713 mmHg 26%
    22:00 +34°C° 0 mm 3 mps 714 mmHg 28%
    23:00 +33°C° 0 mm 3 mps 715 mmHg 29%

    14 December, Thursday

    Time Temperature Precipitation Wind Pressure Humidity
    00:00 +33°C° 0 mm 3 mps 715 mmHg 31%
    01:00 +31°C° 0 mm 3 mps 715 mmHg 33%
    02:00 +30°C° 0 mm 3 mps 714 mmHg 35%
    03:00 +29°C° 0 mm 3 mps 715 mmHg 39%
    04:00 +29°C° 0 mm 2 mps 715 mmHg 43%
    05:00 +28°C° 0 mm 2 mps 715 mmHg 47%
    06:00 +28°C° 0 mm 2 mps 715 mmHg 47%
    07:00 +29°C° 0 mm 2 mps 716 mmHg 46%
    08:00 +30°C° 0 mm 2 mps 716 mmHg 46%
    09:00 +31°C° 0 mm 3 mps 716 mmHg 42%
    10:00 +34°C° 0 mm 3 mps 716 mmHg 39%
    11:00 +35°C° 0 mm 3 mps 716 mmHg 36%
    12:00 +36°C° 0 mm 3 mps 715 mmHg 34%
    13:00 +37°C° 0 mm 4 mps 715 mmHg 31%
    14:00 +38°C° 0 mm 4 mps 714 mmHg 29%
    15:00 +38°C° 0 mm 4 mps 714 mmHg 28%
    16:00 +40°C° 0 mm 4 mps 713 mmHg 27%
    17:00 +40°C° 0 mm 4 mps 713 mmHg 26%
    18:00 +38°C° 0 mm 4 mps 713 mmHg 29%
    19:00 +37°C° 0 mm 4 mps 714 mmHg 32%
    20:00 +36°C° 0 mm 3 mps 714 mmHg 34%
    21:00 +35°C° 0 mm 3 mps 715 mmHg 37%
    22:00 +34°C° 0 mm 3 mps 715 mmHg 40%
    23:00 +32°C° 0 mm 2 mps 715 mmHg 43%

    15 December, Friday

    Time Temperature Precipitation Wind Pressure Humidity
    00:00 +32°C° 0 mm 2 mps 715 mmHg 45%
    01:00 +31°C° 0 mm 1 mps 714 mmHg 47%
    02:00 +30°C° 0 mm 1 mps 714 mmHg 49%
    03:00 +30°C° 0 mm 1 mps 714 mmHg 50%
    04:00 +29°C° 0 mm 1 mps 714 mmHg 52%
    05:00 +29°C° 0 mm 1 mps 714 mmHg 53%
    06:00 +30°C° 0 mm 1 mps 714 mmHg 49%
    07:00 +31°C° 0 mm 1 mps 715 mmHg 46%
    08:00 +32°C° 0 mm 1 mps 715 mmHg 42%
    09:00 +34°C° 0 mm 1 mps 715 mmHg 39%
    10:00 +36°C° 0 mm 2 mps 714 mmHg 36%
    11:00 +37°C° 0 mm 2 mps 714 mmHg 33%
    12:00 +38°C° 0 mm 3 mps 713 mmHg 31%
    13:00 +39°C° 0 mm 3 mps 712 mmHg 28%
    14:00 +41°C° 0 mm 4 mps 711 mmHg 26%
    15:00 +42°C° 0 mm 4 mps 711 mmHg 26%
    16:00 +42°C° 0 mm 4 mps 710 mmHg 26%
    17:00 +42°C° 0 mm 4 mps 709 mmHg 26%
    18:00 +41°C° 0.2 mm 4 mps 709 mmHg 29%
    19:00 +39°C° 0.2 mm 3 mps 709 mmHg 31%
    20:00 +37°C° 0.2 mm 3 mps 709 mmHg 34%
    21:00 +36°C° 0.2 mm 3 mps 709 mmHg 36%
    22:00 +35°C° 0.2 mm 3 mps 710 mmHg 37%
    23:00 +35°C° 0.2 mm 3 mps 710 mmHg 39%

    16 December, Saturday

    Time Temperature Precipitation Wind Pressure Humidity
    00:00 +34°C° 0.1 mm 3 mps 709 mmHg 39%
    01:00 +32°C° 0.1 mm 2 mps 708 mmHg 39%
    02:00 +32°C° 0.1 mm 2 mps 708 mmHg 38%
    03:00 +31°C° 0 mm 2 mps 707 mmHg 39%
    04:00 +31°C° 0 mm 2 mps 707 mmHg 40%
    05:00 +30°C° 0 mm 2 mps 707 mmHg 41%
    06:00 +32°C° 0 mm 2 mps 707 mmHg 36%
    07:00 +35°C° 0 mm 2 mps 707 mmHg 32%
    08:00 +36°C° 0 mm 2 mps 707 mmHg 27%
    09:00 +38°C° 0 mm 2 mps 707 mmHg 25%
    10:00 +39°C° 0 mm 2 mps 707 mmHg 23%
    11:00 +41°C° 0 mm 2 mps 706 mmHg 20%
    12:00 +42°C° 0 mm 2 mps 706 mmHg 19%
    13:00 +43°C° 0 mm 2 mps 705 mmHg 17%
    14:00 +45°C° 0 mm 2 mps 705 mmHg 16%
    15:00 +45°C° 0 mm 3 mps 705 mmHg 15%
    16:00 +46°C° 0 mm 3 mps 705 mmHg 15%
    17:00 +46°C° 0 mm 3 mps 704 mmHg 14%
    18:00 +44°C° 0 mm 3 mps 705 mmHg 17%
    19:00 +43°C° 0 mm 3 mps 706 mmHg 19%
    20:00 +40°C° 0 mm 3 mps 706 mmHg 22%
    21:00 +39°C° 0 mm 3 mps 707 mmHg 23%
    22:00 +38°C° 0 mm 3 mps 708 mmHg 25%
    23:00 +37°C° 0 mm 3 mps 708 mmHg 26%
    Show more